Location: *
(46.1006°N, 1.8394°E)
Time: 00:53:32
(UTC+00:00)

USA 234 - Pass Details

Date: 20 September 2019
Orbit: 1103 x 1105 km, 123.0° (Epoch: 06 October)

Event Time Altitude Azimuth Distance (km) Brightness Sun altitude
Exits shadow 22:18:54 44° 350° (N) 1,497 4.1 -39.2°
Drops below altitude 10° 22:23:53 10° 311° (NW) 2,967 6.1 -39.6°
Sets 22:26:26 0° 306° (NW) 3,927 6.9 -39.8°
